Flag for Germany Weather past 2 weeks in Bad Homburg, Hesse, Germany

Now
56 °F

Overcast.


Feels Like: 54 °F
Forecast: 44 / 69 °F
Wind: 6 mph from Southwest

Location: Frankfurt / M-Flughafen

Current Time: May 30, 2015 at 2:46:56 AM

Latest Report: May 30, 2015 at 2:00 AM


Visibility: 28 mi

Pressure: 29.83 "Hg

Humidity: 78%

Dew point: 49 °F

Location of Bad HomburgLocation

Historic Weather in Bad Homburg — Graph

°F

Bad Homburg temperature yesterday

Maximum temperature yesterday: 66 °F (at 1:00 PM)
Minimum temperature yesterday: 51 °F (at 4:00 AM)
Average temperature yesterday: 58 °F

Past Weeks' High & Low Weather Summary

 TemperatureHumidityPressure
High72 °F (May 18, 4:00 PM)97% (May 18, 6:00 AM)30.35 "Hg (May 18, 6:00 AM)
Low39 °F (May 28, 3:00 AM)25% (May 18, 3:00 PM)29.67 "Hg (May 19, 3:00 AM)
Average58 °F60%30.06 "Hg
* Reported May 15 1:00 AM — May 30 1:00 AM, Bad Homburg, Weather by CustomWeather, © 2015

Note: Actual official high and low records may vary slightly from our data, if they occured in-between our weather recording intervals... More about our weather records

Advertising

Bad Homburg weather history for previous 24 hours

 ConditionsComfort  
Time TempWeatherWind HumidityBarometerVisibility
1:00 AM
Sat, May 30
54 °FOvercast.5 mph83%29.83 "Hg28 mi
12:00 AM54 °FOvercast.5 mph81%29.84 "Hg31 mi
11:00 PM
Fri, May 29
54 °FOvercast.2 mph82%29.85 "Hg31 mi
10:00 PM53 °FPassing clouds.5 mph85%29.85 "Hg34 mi
9:00 PM57 °FOvercast.6 mph71%29.83 "Hg31 mi
8:00 PM59 °FOvercast.7 mph71%29.82 "Hg28 mi
7:00 PM60 °FOvercast.5 mph89%29.80 "Hg19 mi
6:00 PM60 °FOvercast.6 mph86%29.81 "Hg16 mi
4:00 PM63 °FSprinkles. Overcast.7 mph60%29.82 "Hg14 mi
3:00 PM65 °FOvercast.8 mph53%29.83 "Hg16 mi
2:00 PM65 °FOvercast.6 mph50%29.85 "Hg25 mi
1:00 PM66 °FScattered clouds.6 mph50%29.88 "Hg25 mi
12:00 PM64 °FMild.7 mph47%29.89 "HgN/A
10:00 AM62 °FOvercast.6 mph60%29.91 "Hg31 mi
9:00 AM60 °FOvercast.5 mph64%29.93 "Hg31 mi
8:00 AM56 °FPartly sunny.3 mph66%29.94 "Hg31 mi
7:00 AM53 °FPartly sunny.3 mph79%29.94 "Hg31 mi
6:00 AM51 °FOvercast.2 mph86%29.95 "Hg31 mi
4:00 AM51 °FOvercast.2 mph85%29.96 "Hg31 mi
3:00 AM52 °FOvercast.1 mph81%29.97 "Hg31 mi
2:00 AM54 °FOvercast.2 mph74%29.98 "Hg31 mi
Weather by CustomWeather, © 2015

See weather overviewHow to use our weather pages